Theta_e
319 316 315 317 317 316 317 318 317 318 315 315 314 316 316 317 313 312 312 312 312 312 313 314 314 314 314 315 314 311 314 315 313 313 314 312 312 305 302 303 301 300 301 301 300
319 318 316 316 318 318 318 319 319 319 318 314 315 316 317 315 315 312 312 311 312 313 313 312 311 311 312 314 312 311 313 315 313 311 313 313 311 306 306 302 301 299 298 299 299
317 319 318 317 317 318 318 319 319 319 319 315 316 314 316 314 314 313 312 311 312 313 313 313 312 312 313 314 313 312 310 314 314 312 311 312 310 306 305 306 300 298 296 296 296
314 316 318 318 317 318 319 319 318 318 318 316 316 314 314 315 315 314 313 312 311 313 312 312 310 310 313 314 313 315 313 313 313 313 311 311 308 307 305 306 302 297 296 295 294
312 313 314 317 317 317 318 318 318 317 317 315 315 314 316 315 312 314 313 312 311 313 311 311 310 310 312 313 312 314 314 313 311 310 310 309 310 308 303 299 296 295 295 293 293
310 311 312 313 316 316 317 317 317 316 317 315 314 314 317 317 314 311 310 312 311 311 311 310 310 310 312 315 313 312 312 311 310 311 309 311 308 306 302 296 295 295 294 292 293
309 309 310 312 313 315 316 316 315 315 316 314 314 315 317 314 313 310 311 312 310 310 310 309 310 311 312 311 311 311 311 309 310 310 311 308 309 307 301 296 296 295 293 292 292
310 310 309 310 312 314 314 314 314 315 316 313 315 315 312 314 313 310 310 311 310 310 310 309 310 310 311 310 310 311 310 312 311 309 309 308 310 307 299 297 296 294 292 292 291
311 310 310 310 311 314 314 314 313 316 316 311 316 315 314 313 313 312 311 309 309 310 309 309 311 310 309 311 311 307 312 311 309 309 309 307 308 306 299 298 297 294 292 291 290
313 311 310 310 311 315 314 313 315 316 315 315 315 313 312 313 314 314 311 309 309 309 312 311 305 309 307 311 317 316 310 307 307 309 309 309 308 306 299 299 298 295 291 289 289
314 314 312 310 310 315 315 315 311 310 312 311 311 313 313 314 314 311 309 309 310 311 314 311 312 313 312 310 311 309 308 307 307 307 310 307 309 308 301 298 297 293 291 290 290
314 315 314 312 311 315 312 308 310 309 309 308 307 309 313 313 313 310 308 309 311 313 312 312 314 312 311 309 310 308 309 308 306 306 306 306 306 307 302 301 299 297 293 291 289
312 314 316 313 313 311 309 308 308 309 308 307 310 311 312 311 312 310 306 307 311 311 312 314 314 309 309 308 309 307 308 307 307 305 303 301 301 304 303 302 300 297 294 291 290
312 313 315 314 312 308 311 307 309 310 303 306 311 312 309 308 311 307 305 308 310 312 311 311 309 308 308 308 306 307 305 306 306 305 306 302 308 303 301 300 300 298 291 291 288
311 312 315 315 313 306 310 307 307 307 304 306 313 309 308 309 308 309 305 307 311 311 311 315 306 306 307 306 305 308 304 305 304 304 302 302 302 302 298 300 300 297 293 291 289
311 312 313 313 312 308 306 306 308 307 308 308 311 310 310 309 309 308 307 305 305 309 307 309 305 304 306 305 305 305 305 303 298 299 303 302 303 301 300 300 299 296 294 290 288
310 311 312 312 310 307 305 306 309 307 306 309 313 311 311 310 309 309 308 308 312 314 312 310 307 304 306 307 306 304 306 310 310 304 309 299 299 307 304 299 297 297 293 290 289
311 311 312 312 313 308 307 307 311 305 306 310 311 310 312 310 311 309 310 311 309 311 309 315 314 305 304 305 308 305 306 311 312 309 311 298 306 306 299 292 290 292 293 289 288
312 313 313 312 314 310 302 307 313 310 306 312 311 312 311 310 311 309 308 309 310 308 316 311 311 302 303 303 305 304 304 304 306 286 297 306 302 301 293 292 290 291 289 288 288
312 314 312 312 314 307 300 309 310 308 309 312 312 311 313 313 311 309 308 307 310 306 310 311 312 303 300 301 298 302 300 303 301 303 303 308 308 311 301 297 289 289 288 288 287
313 314 311 312 311 306 315 309 308 309 311 312 311 309 312 313 311 309 312 309 306 306 306 305 309 304 300 302 305 299 300 300 301 306 308 304 312 304 305 298 290 290 289 288 287
313 313 308 309 313 310 313 308 309 308 309 311 311 312 312 311 311 310 311 311 306 303 307 304 306 307 304 298 297 301 303 302 305 304 301 306 312 295 298 297 291 290 289 288 287
313 311 307 306 313 313 308 310 310 309 310 311 312 311 310 310 311 309 310 308 304 305 305 303 305 305 309 303 297 296 298 301 300 300 309 309 311 295 295 293 290 290 288 287 286
312 312 309 307 310 310 310 312 312 310 310 309 310 309 310 310 310 311 309 309 304 305 308 307 306 309 313 309 301 298 297 297 302 307 310 310 309 308 307 304 294 289 287 286 286
311 312 309 312 310 312 309 309 309 311 310 309 310 310 310 312 311 311 310 308 301 302 305 306 311 306 311 311 306 306 308 296 300 304 308 310 309 308 308 308 305 299 288 286 286
314 314 307 308 307 310 311 311 310 309 310 311 311 308 310 311 309 309 311 309 310 299 300 299 310 309 310 308 305 306 308 307 305 304 305 307 308 307 307 306 304 292 287 287 287
314 312 310 312 310 311 310 310 310 310 309 309 310 311 310 310 310 309 308 307 308 308 299 298 304 302 312 304 306 309 310 308 308 308 308 309 308 307 306 297 292 289 287 288 287
Wind_Speed
14 16 17 19 20 21 21 20 21 23 19 14 3 6 6 8 10 7 6 7 8 10 8 7 6 9 2 3 3 3 4 2 3 6 4 2 4 3 1 6 3 4 3 10 17
12 15 16 17 18 20 21 21 21 22 18 14 4 5 1 4 4 10 6 7 8 9 8 10 6 8 3 2 3 4 3 5 2 4 5 3 4 8 4 4 2 3 6 15 13
11 13 15 17 18 18 20 21 21 22 20 12 7 4 5 5 1 1 5 7 8 9 7 4 3 2 3 3 3 1 3 4 3 4 5 3 4 4 8 6 9 12 11 9 13
11 13 15 17 18 19 19 20 21 22 22 12 6 2 2 1 1 3 2 5 7 7 7 6 6 4 3 3 4 2 1 3 5 3 3 5 7 4 5 4 4 14 14 9 9
13 15 16 18 19 19 20 20 21 22 21 12 5 4 1 2 4 2 1 3 4 2 8 3 5 1 1 2 5 1 2 3 5 6 5 5 2 5 6 2 9 14 9 9 9
13 15 17 18 19 20 20 20 21 22 23 10 4 5 1 2 2 2 2 1 5 5 5 5 2 1 1 0 0 3 3 6 4 5 6 5 1 2 6 6 8 10 10 9 10
14 15 17 19 20 21 21 21 22 24 22 9 3 6 3 8 3 1 1 3 4 4 2 3 3 1 2 3 4 3 6 8 3 5 5 6 4 10 8 10 12 10 9 8 10
13 15 17 18 20 21 22 22 22 26 17 6 3 5 5 3 6 3 1 2 2 3 3 3 2 3 1 1 5 4 3 5 3 5 1 5 11 7 13 17 15 11 9 9 9
14 15 16 18 19 22 23 22 23 19 9 2 3 3 5 2 4 7 2 1 2 4 4 3 3 2 4 3 4 6 3 3 9 5 3 6 9 2 10 13 12 12 11 9 8
14 15 17 18 19 21 23 22 18 6 1 1 1 3 0 4 3 3 4 2 2 3 3 4 5 3 4 4 4 4 5 5 6 3 4 5 16 6 11 14 17 12 9 9 9
17 17 18 17 18 21 23 11 6 4 2 5 3 4 1 1 2 3 3 4 3 4 3 2 4 5 9 7 3 2 4 7 9 6 4 9 15 21 11 10 12 11 13 13 13
18 18 20 18 17 17 12 3 3 2 8 3 4 4 5 3 2 4 6 6 4 6 3 4 5 4 2 5 3 4 4 8 9 3 6 10 12 18 10 11 20 21 17 16 9
17 17 20 18 17 9 5 3 1 2 1 7 4 3 3 8 6 6 9 5 4 5 6 6 3 4 4 3 3 5 5 6 8 6 5 8 7 13 4 11 8 12 12 14 16
15 14 15 16 7 8 3 2 1 1 3 7 4 3 3 2 3 2 4 3 2 10 7 6 1 5 4 5 8 5 5 4 5 5 4 4 9 5 5 13 11 13 14 17 12
15 13 10 6 12 4 2 0 1 1 3 5 3 1 2 4 1 0 1 3 6 7 6 7 7 6 6 8 8 8 2 2 2 4 4 5 4 5 2 9 16 15 18 17 16
13 11 8 6 4 5 3 1 1 4 7 4 4 5 3 1 1 2 2 4 2 4 2 6 1 5 7 2 5 4 2 3 4 2 2 5 7 4 5 8 7 5 16 16 16
12 12 10 5 1 2 4 1 2 5 2 5 6 5 4 7 4 6 6 5 7 3 6 1 4 1 2 3 2 4 5 4 5 2 7 3 4 14 10 11 8 8 12 15 14
12 14 13 12 2 4 5 3 8 8 8 2 4 3 7 7 4 5 5 5 6 3 3 5 9 8 5 6 6 6 8 6 6 4 9 1 9 6 5 6 7 8 8 10 12
14 13 14 15 12 7 3 6 9 8 7 9 3 4 6 5 6 6 9 7 9 12 10 6 7 1 2 1 2 4 5 1 2 3 3 5 8 7 5 7 3 6 9 14 15
16 10 13 17 17 9 2 18 8 9 6 4 13 10 9 7 8 8 9 5 6 14 1 6 5 1 2 1 3 4 5 4 2 2 6 7 13 16 8 10 5 7 12 14 12
13 3 8 25 22 3 9 9 9 9 7 9 9 6 9 9 9 7 7 4 6 4 3 5 4 3 3 8 10 2 3 2 3 5 6 2 14 7 8 10 11 14 14 15 16
7 5 12 34 6 4 14 7 6 7 9 8 5 9 10 10 8 7 12 12 10 9 10 7 5 6 15 0 1 3 10 13 6 7 4 4 22 6 8 8 10 13 14 13 12
4 5 13 14 10 14 5 6 14 9 12 15 13 8 6 9 5 10 10 6 10 11 11 9 4 2 5 2 2 7 7 6 1 1 20 9 20 2 3 1 9 9 10 12 12
5 5 4 7 10 14 16 11 13 8 20 6 6 8 6 9 9 7 6 6 6 9 6 14 8 9 16 10 6 6 11 11 15 10 22 28 32 41 27 24 10 9 11 14 15
7 9 8 9 19 22 8 6 24 15 9 17 15 23 16 12 16 21 15 0 3 5 5 10 17 8 24 23 5 6 16 13 18 28 17 36 31 35 30 30 16 16 12 14 16
7 6 3 6 6 24 24 34 28 13 12 15 21 12 23 26 28 18 19 10 17 2 8 4 14 11 20 10 5 10 31 19 24 26 23 33 38 38 35 26 22 10 14 16 16
16 6 5 9 13 15 27 36 30 24 19 22 21 19 23 30 26 26 16 10 10 12 11 9 7 5 23 4 5 13 26 24 28 29 23 28 38 36 27 13 9 7 13 17 17
Wind_Direction
22 20 19 19 16 17 17 18 18 19 18 21 78 124 91 53 45 65 44 349 346 4 7 359 15 14 42 60 47 121 62 116 162 155 201 249 141 28 45 96 44 329 129 140 148
16 13 10 12 12 10 10 11 12 11 10 11 22 187 159 25 38 52 19 9 5 4 12 14 352 360 31 42 22 77 96 194 215 173 182 215 177 156 128 136 58 43 70 132 141
5 4 4 3 3 3 3 3 4 4 3 5 357 214 229 320 337 228 19 20 13 3 359 347 352 42 49 358 1 187 153 181 224 205 166 209 144 147 131 232 196 183 170 162 138
347 350 353 356 356 355 355 356 354 356 358 354 350 255 191 291 234 170 27 21 22 25 23 9 24 41 52 11 335 353 48 191 174 231 171 187 131 148 211 246 185 156 160 152 149
336 342 345 347 348 349 347 347 345 347 350 346 331 201 158 4 254 213 303 10 16 49 50 44 41 56 42 314 337 146 292 303 161 185 232 141 176 193 229 193 128 134 145 150 149
327 334 339 340 341 341 339 338 337 336 338 333 312 197 131 252 186 262 304 287 24 39 51 50 119 171 119 218 27 318 284 271 261 215 195 196 140 32 192 153 131 152 168 167 164
323 328 332 334 335 334 333 331 329 328 329 313 272 182 119 236 207 277 12 109 46 44 76 87 117 105 123 343 349 338 332 329 218 193 205 137 262 235 152 166 172 182 176 176 179
315 319 324 327 329 327 326 325 323 321 321 290 244 170 223 212 207 237 66 119 71 56 75 85 75 100 77 234 19 20 52 358 311 135 196 133 262 257 167 171 192 191 186 183 186
306 311 314 319 323 323 321 321 315 312 311 265 206 161 266 197 217 228 241 154 88 99 71 79 67 80 26 66 9 15 281 271 314 201 124 187 268 259 174 189 198 198 194 193 190
304 308 311 316 319 322 321 321 311 299 207 127 130 32 237 229 182 199 204 187 121 105 63 59 49 45 30 70 252 265 289 262 239 284 205 236 267 253 200 199 211 198 194 198 198
308 315 312 313 317 325 331 335 14 348 14 213 185 229 202 185 208 209 173 129 107 73 192 29 59 249 236 208 191 207 226 245 263 233 250 236 253 269 210 217 223 204 202 204 203
310 315 317 316 314 321 325 38 82 147 304 273 232 268 222 159 266 225 171 159 155 190 132 25 234 221 164 149 185 219 270 270 281 281 188 266 250 268 189 222 216 211 203 201 193
305 312 317 321 320 319 347 118 52 30 260 293 216 208 204 158 214 224 151 161 162 160 182 175 223 118 162 185 221 221 197 245 240 330 278 312 260 243 233 248 232 221 207 205 195
295 301 314 328 315 338 324 350 133 19 40 273 250 293 93 120 272 118 184 142 184 196 166 230 230 197 198 240 159 273 209 258 288 342 259 31 292 259 238 256 224 216 198 201 187
289 293 307 325 308 311 300 330 112 78 316 263 209 140 121 173 120 341 2 60 180 181 132 240 172 193 208 219 160 224 106 228 233 254 325 217 251 254 65 269 256 220 213 201 188
281 280 279 288 283 272 291 196 56 55 248 275 150 175 148 189 226 82 93 50 42 123 319 247 352 175 216 157 166 112 42 49 52 48 313 234 195 234 194 216 254 221 212 192 185
266 262 254 260 223 337 182 49 40 181 276 230 217 170 186 194 210 181 171 176 179 149 224 251 219 249 175 136 93 98 70 325 327 352 235 166 236 256 248 247 236 236 201 197 179
259 249 241 240 231 192 135 68 216 215 222 65 134 112 190 160 237 183 164 222 234 102 117 215 284 176 182 202 183 170 166 166 245 237 285 98 242 253 239 286 287 267 206 182 177
232 235 230 226 225 191 93 213 199 186 203 168 105 176 224 221 192 161 202 205 204 171 187 173 266 155 188 135 144 172 178 168 73 91 353 247 282 288 285 283 292 204 167 186 185
215 224 221 214 198 152 122 232 208 193 144 153 199 184 199 206 172 185 182 197 227 196 159 204 282 177 128 132 31 156 156 78 19 260 265 262 278 255 246 261 185 219 210 198 187
209 234 199 193 164 179 221 226 217 232 171 177 213 231 212 184 197 206 212 243 207 143 127 139 164 205 131 206 178 129 210 133 153 166 204 292 275 192 200 215 199 215 213 200 197
185 239 187 161 187 209 228 192 222 220 208 243 209 220 187 189 205 222 215 215 162 156 168 207 162 203 217 273 322 243 203 177 189 227 247 157 261 173 188 222 183 213 208 203 199
203 198 184 188 213 216 239 246 220 195 199 214 225 190 188 194 230 196 218 196 164 161 173 175 227 284 317 31 346 224 210 216 105 141 238 212 261 118 358 181 215 220 208 203 192
173 185 180 218 234 222 221 232 227 220 238 230 215 164 168 219 221 246 225 211 202 213 191 159 194 180 231 220 130 187 215 206 206 233 247 244 260 270 268 269 237 219 203 199 193
189 215 177 204 221 223 210 234 228 225 211 208 248 228 214 235 231 239 246 246 225 228 186 177 236 198 245 254 205 222 240 188 208 229 235 260 261 265 271 271 271 235 205 189 188
189 210 194 230 173 208 220 238 239 224 194 216 228 214 224 230 224 238 226 209 223 80 177 193 238 232 254 251 206 267 259 239 233 245 253 256 265 268 268 281 276 221 192 191 194
212 187 200 209 218 197 215 232 235 228 240 233 227 226 232 232 234 239 245 243 221 200 185 169 191 156 249 114 71 274 259 242 248 245 238 250 249 261 274 244 228 200 193 195 188